Location: Bergnershof
(48.9468°N, 10.9431°E)
Time: 16:30:29
(UTC+00:00)

Cosmos 2333 Rocket - Pass Details

Date: 01 July 2021
Orbit: 841 x 861 km, 70.8° (Epoch: 24 July)

Event Time Altitude Azimuth Distance (km) Brightness Sun altitude
Rises 01:20:31 0° 334° (NNW) 3,422 5.9 -13.1°
Reaches altitude 10° 01:24:17 10° 359° (N) 2,479 5.6 -12.8°
Maximum altitude 01:27:17 14° 31° (NNE) 2,180 5.7 -12.6°
Drops below altitude 10° 01:30:15 10° 63° (ENE) 2,469 5.6 -12.3°
Sets 01:33:59 0° 87° (E) 3,398 5.9 -12.0°
